TKJ6TQ LTCK-LTAC

Flight info

Callsign TKJ6TQ
Flight time 1h 20m
Altitude 34000
Route BAYIR UT368 EZS UL614 GEM UW705 BADOX UL605 BALAX UA17 YUCEL
Aircraft A320/M-SDE3FGHIRWY/LB1

Departure

Time 2026-04-23 14:35
Airport Muş Airport (LTCK)

Arrival

Time 2026-04-23 15:55
Airport Esenboğa International Airport (LTAC)
Time Latitude Longitude Altitude Speed Heading
2026-04-23 14:28 38.75956 41.64646 4170 ft 4 kts 34°
2026-04-23 14:28 38.75937 41.64633 4171 ft 4 kts 28°
2026-04-23 14:28 38.75916 41.64614 4170 ft 4 kts 57°
2026-04-23 14:29 38.75911 41.64587 4169 ft 2 kts 115°
2026-04-23 14:29 38.75912 41.64584 4169 ft 0 kts 117°
2026-04-23 14:31 38.75910 41.64587 4169 ft 2 kts 117°
2026-04-23 14:31 38.75902 41.64608 4169 ft 3 kts 116°
2026-04-23 14:31 38.75873 41.64616 4168 ft 9 kts 185°
2026-04-23 14:31 38.75807 41.64580 4167 ft 11 kts 206°
2026-04-23 14:32 38.75737 41.64535 4166 ft 12 kts 206°
2026-04-23 14:32 38.75653 41.64482 4164 ft 15 kts 206°
2026-04-23 14:32 38.75559 41.64423 4164 ft 15 kts 205°
2026-04-23 14:32 38.75472 41.64377 4162 ft 13 kts 175°
2026-04-23 14:33 38.75420 41.64462 4162 ft 13 kts 116°
2026-04-23 14:33 38.75377 41.64572 4162 ft 16 kts 115°
2026-04-23 14:33 38.75322 41.64717 4163 ft 16 kts 116°
2026-04-23 14:33 38.75303 41.64763 4165 ft 0 kts 117°
2026-04-23 14:34 38.75274 41.64840 4166 ft 39 kts 116°
2026-04-23 14:34 38.75041 41.65446 4168 ft 111 kts 116°
2026-04-23 14:34 38.74610 41.66560 4167 ft 166 kts 115°
2026-04-23 14:34 38.74055 41.67983 4612 ft 184 kts 118°
2026-04-23 14:35 38.73393 41.69459 5244 ft 196 kts 123°
2026-04-23 14:35 38.72663 41.70988 5996 ft 208 kts 129°
2026-04-23 14:35 38.71877 41.72615 6728 ft 220 kts 130°
2026-04-23 14:35 38.71043 41.74345 7371 ft 237 kts 130°
2026-04-23 14:36 38.70146 41.76221 8059 ft 256 kts 129°
2026-04-23 14:36 38.69188 41.78246 8760 ft 274 kts 128°
2026-04-23 14:36 38.68180 41.80397 9479 ft 290 kts 127°
2026-04-23 14:36 38.67122 41.82666 10177 ft 302 kts 127°
2026-04-23 14:37 38.66069 41.85021 10818 ft 309 kts 120°
2026-04-23 14:37 38.65430 41.87679 11489 ft 320 kts 102°
2026-04-23 14:37 38.65431 41.90551 12185 ft 327 kts 83°
2026-04-23 14:37 38.66125 41.93334 12882 ft 331 kts 62°
2026-04-23 14:38 38.67459 41.95714 13591 ft 329 kts 42°
2026-04-23 14:38 38.69325 41.97492 13827 ft 343 kts 22°
2026-04-23 14:38 38.71627 41.98395 13942 ft 353 kts
2026-04-23 14:38 38.74104 41.98278 14080 ft 361 kts 341°
2026-04-23 14:39 38.76440 41.97085 14289 ft 364 kts 322°
2026-04-23 14:39 38.78317 41.94958 14702 ft 359 kts 303°
2026-04-23 14:39 38.79525 41.92199 15195 ft 354 kts 285°
2026-04-23 14:39 38.79945 41.89120 15722 ft 350 kts 268°
2026-04-23 14:40 38.79564 41.86048 16230 ft 351 kts 253°
2026-04-23 14:40 38.78881 41.83038 16811 ft 353 kts 254°
2026-04-23 14:40 38.78193 41.80041 17358 ft 355 kts 254°
2026-04-23 14:40 38.77493 41.76993 17905 ft 358 kts 254°
2026-04-23 14:41 38.76787 41.73926 18444 ft 360 kts 254°
2026-04-23 14:41 38.76074 41.70832 18951 ft 362 kts 254°
2026-04-23 14:41 38.75321 41.67745 19448 ft 365 kts 250°
2026-04-23 14:41 38.74173 41.64823 19932 ft 369 kts 239°
2026-04-23 14:42 38.72638 41.62175 20400 ft 372 kts 235°
2026-04-23 14:42 38.71048 41.59547 20853 ft 374 kts 235°
2026-04-23 14:42 38.69454 41.56899 21305 ft 376 kts 235°
2026-04-23 14:42 38.67846 41.54233 21733 ft 378 kts 235°
2026-04-23 14:43 38.66253 41.51596 22052 ft 381 kts 235°
2026-04-23 14:43 38.64627 41.48908 22460 ft 383 kts 235°
2026-04-23 14:43 38.62990 41.46202 22844 ft 386 kts 234°
2026-04-23 14:43 38.61486 41.43367 23243 ft 385 kts 243°
2026-04-23 14:44 38.60445 41.40213 23624 ft 386 kts 253°
2026-04-23 14:44 38.59919 41.36855 23924 ft 387 kts 264°
2026-04-23 14:44 38.59929 41.33407 24254 ft 391 kts 274°
2026-04-23 14:44 38.60168 41.29939 24583 ft 392 kts 274°
2026-04-23 14:45 38.60323 41.27586 24810 ft 393 kts 273°
2026-04-23 14:45 38.60611 41.22975 25284 ft 394 kts 273°
2026-04-23 14:45 38.60823 41.19470 25653 ft 395 kts 273°
2026-04-23 14:45 38.61036 41.15959 26009 ft 397 kts 273°
2026-04-23 14:46 38.61249 41.12437 26344 ft 399 kts 273°
2026-04-23 14:46 38.61394 41.10039 26587 ft 400 kts 273°
2026-04-23 14:46 38.61608 41.06509 27081 ft 397 kts 273°
2026-04-23 14:46 38.61822 41.02994 27581 ft 395 kts 273°
2026-04-23 14:47 38.62035 40.99501 28042 ft 393 kts 273°
2026-04-23 14:47 38.62246 40.96061 28523 ft 391 kts 273°
2026-04-23 14:47 38.62458 40.92603 29041 ft 389 kts 273°
2026-04-23 14:47 38.62671 40.89123 29608 ft 386 kts 274°
2026-04-23 14:48 38.62875 40.85759 30114 ft 383 kts 273°
2026-04-23 14:48 38.63078 40.82370 30562 ft 381 kts 272°
2026-04-23 14:48 38.63273 40.78990 30981 ft 380 kts 272°
2026-04-23 14:48 38.63455 40.75621 31379 ft 379 kts 272°
2026-04-23 14:49 38.63628 40.72272 31851 ft 376 kts 272°
2026-04-23 14:49 38.63800 40.68945 32319 ft 373 kts 272°
2026-04-23 14:49 38.63970 40.65638 32742 ft 372 kts 271°
2026-04-23 14:49 38.64137 40.62345 33178 ft 370 kts 272°
2026-04-23 14:50 38.64304 40.59068 33622 ft 368 kts 271°
2026-04-23 14:50 38.64470 40.55799 33938 ft 368 kts 271°
2026-04-23 14:50 38.64808 40.49135 33967 ft 381 kts 271°
2026-04-23 14:51 38.65156 40.42344 33966 ft 384 kts 271°
2026-04-23 14:51 38.65500 40.35528 33952 ft 384 kts 271°
2026-04-23 14:52 38.65833 40.28709 33950 ft 384 kts 271°
2026-04-23 14:52 38.66162 40.21885 33945 ft 384 kts 271°
2026-04-23 14:53 38.66497 40.15055 33947 ft 384 kts 271°
2026-04-23 14:53 38.66839 40.08224 33941 ft 384 kts 271°
2026-04-23 14:54 38.67178 40.01395 33940 ft 385 kts 271°
2026-04-23 14:54 38.67505 39.94567 33931 ft 384 kts 271°
2026-04-23 14:55 38.67826 39.87735 33929 ft 384 kts 271°
2026-04-23 14:55 38.68144 39.80958 33931 ft 384 kts 270°
2026-04-23 14:56 38.68459 39.74142 33927 ft 384 kts 270°
2026-04-23 14:56 38.68771 39.67322 33921 ft 384 kts 270°
2026-04-23 14:57 38.69077 39.60455 33920 ft 384 kts 270°
2026-04-23 14:57 38.69382 39.53625 33921 ft 384 kts 270°
2026-04-23 14:58 38.69695 39.46803 33909 ft 384 kts 270°
2026-04-23 14:58 38.70027 39.39984 33907 ft 384 kts 270°
2026-04-23 14:59 38.70350 39.33157 33904 ft 384 kts 270°
2026-04-23 14:59 38.70662 39.26364 33905 ft 384 kts 270°
2026-04-23 15:00 38.71255 39.19544 33882 ft 387 kts 276°
2026-04-23 15:00 38.72270 39.12756 33880 ft 388 kts 277°
2026-04-23 15:01 38.73292 39.05975 33899 ft 388 kts 277°
2026-04-23 15:01 38.74303 38.99192 33895 ft 387 kts 276°
2026-04-23 15:02 38.75300 38.92412 33889 ft 387 kts 276°
2026-04-23 15:02 38.76305 38.85637 33880 ft 387 kts 277°
2026-04-23 15:03 38.77334 38.78862 33884 ft 387 kts 277°
2026-04-23 15:03 38.78357 38.72087 33871 ft 387 kts 276°
2026-04-23 15:04 38.79364 38.65350 33872 ft 387 kts 276°
2026-04-23 15:04 38.80375 38.58574 33861 ft 387 kts 276°
2026-04-23 15:05 38.81379 38.51795 33861 ft 387 kts 276°
2026-04-23 15:05 38.82384 38.45005 33851 ft 388 kts 276°
2026-04-23 15:06 38.83384 38.38196 33832 ft 389 kts 276°
2026-04-23 15:06 38.84377 38.31362 33829 ft 390 kts 276°
2026-04-23 15:07 38.85378 38.24514 33830 ft 391 kts 276°
2026-04-23 15:07 38.86377 38.17651 33830 ft 391 kts 276°
2026-04-23 15:08 38.87367 38.10789 33862 ft 391 kts 276°
2026-04-23 15:09 38.88843 38.00496 33857 ft 390 kts 276°
2026-04-23 15:09 38.89818 37.93684 33854 ft 390 kts 276°
2026-04-23 15:10 38.90642 37.87944 33853 ft 390 kts 276°
2026-04-23 15:10 38.91770 37.79986 33861 ft 389 kts 276°
2026-04-23 15:11 38.92734 37.73144 33853 ft 389 kts 276°
2026-04-23 15:11 38.93695 37.66301 33838 ft 389 kts 276°
2026-04-23 15:12 38.94650 37.59456 33819 ft 390 kts 276°
2026-04-23 15:12 38.95606 37.52592 33800 ft 391 kts 276°
2026-04-23 15:13 38.96557 37.45701 33819 ft 391 kts 276°
2026-04-23 15:13 38.97509 37.38817 33817 ft 391 kts 276°
2026-04-23 15:14 38.98463 37.31923 33822 ft 392 kts 276°
2026-04-23 15:14 38.99408 37.25018 33822 ft 392 kts 276°
2026-04-23 15:15 39.00345 37.18115 33834 ft 392 kts 276°
2026-04-23 15:15 39.01281 37.11210 33838 ft 392 kts 276°
2026-04-23 15:16 39.02215 37.04304 33838 ft 392 kts 276°
2026-04-23 15:16 39.03147 36.97389 33834 ft 392 kts 276°
2026-04-23 15:17 39.04069 36.90471 33835 ft 393 kts 276°
2026-04-23 15:17 39.04986 36.83543 33853 ft 392 kts 275°
2026-04-23 15:18 39.05900 36.76616 33846 ft 392 kts 276°
2026-04-23 15:18 39.06811 36.69688 33845 ft 393 kts 276°
2026-04-23 15:19 39.07715 36.62805 33847 ft 393 kts 276°
2026-04-23 15:19 39.08622 36.55870 33853 ft 393 kts 275°
2026-04-23 15:20 39.09375 36.50065 33871 ft 392 kts 275°
2026-04-23 15:20 39.10413 36.42012 33862 ft 392 kts 275°
2026-04-23 15:21 39.11302 36.35098 33860 ft 392 kts 275°
2026-04-23 15:21 39.12188 36.28176 33862 ft 391 kts 275°
2026-04-23 15:22 39.13071 36.21259 33857 ft 391 kts 275°
2026-04-23 15:22 39.13953 36.14338 33860 ft 391 kts 275°
2026-04-23 15:23 39.14826 36.07420 33860 ft 391 kts 275°
2026-04-23 15:23 39.15660 36.00494 33850 ft 391 kts 274°
2026-04-23 15:24 39.16338 35.93546 33853 ft 391 kts 273°
2026-04-23 15:24 39.16959 35.86595 33893 ft 390 kts 273°
2026-04-23 15:25 39.17594 35.79695 33892 ft 390 kts 273°
2026-04-23 15:25 39.18140 35.73886 33898 ft 390 kts 273°
2026-04-23 15:26 39.18895 35.65813 33897 ft 389 kts 273°
2026-04-23 15:26 39.19538 35.58890 33900 ft 389 kts 273°
2026-04-23 15:27 39.20068 35.53127 33922 ft 389 kts 273°
2026-04-23 15:27 39.20700 35.46211 33920 ft 388 kts 273°
2026-04-23 15:28 39.21331 35.39305 33912 ft 388 kts 273°
2026-04-23 15:28 39.21952 35.32397 33920 ft 388 kts 273°
2026-04-23 15:29 39.22575 35.25492 33892 ft 387 kts 273°
2026-04-23 15:29 39.23181 35.18589 33915 ft 388 kts 273°
2026-04-23 15:30 39.23786 35.11674 33925 ft 388 kts 273°
2026-04-23 15:30 39.24390 35.04742 33582 ft 389 kts 273°
2026-04-23 15:30 39.24693 35.01273 33182 ft 389 kts 273°
2026-04-23 15:31 39.24995 34.97804 32794 ft 389 kts 273°
2026-04-23 15:31 39.25463 34.94361 32390 ft 393 kts 283°
2026-04-23 15:31 39.26676 34.91153 32001 ft 405 kts 298°
2026-04-23 15:31 39.28304 34.88167 31614 ft 409 kts 299°
2026-04-23 15:32 39.29961 34.85177 31238 ft 411 kts 299°
2026-04-23 15:32 39.31632 34.82178 30865 ft 413 kts 299°
2026-04-23 15:32 39.33314 34.79159 30485 ft 414 kts 299°
2026-04-23 15:32 39.35001 34.76125 30122 ft 416 kts 299°
2026-04-23 15:33 39.36692 34.73080 29728 ft 417 kts 298°
2026-04-23 15:33 39.38381 34.70024 29302 ft 419 kts 298°
2026-04-23 15:33 39.40074 34.66950 28875 ft 420 kts 298°
2026-04-23 15:33 39.41769 34.63868 28470 ft 421 kts 298°
2026-04-23 15:34 39.43465 34.60784 28056 ft 420 kts 298°
2026-04-23 15:34 39.45154 34.57717 27663 ft 417 kts 299°
2026-04-23 15:34 39.46839 34.54656 27268 ft 416 kts 299°
2026-04-23 15:34 39.48488 34.51658 26909 ft 413 kts 298°
2026-04-23 15:35 39.50165 34.48610 26525 ft 408 kts 298°
2026-04-23 15:35 39.51781 34.45667 26168 ft 404 kts 298°
2026-04-23 15:35 39.53403 34.42703 25798 ft 401 kts 298°
2026-04-23 15:35 39.55011 34.39755 25425 ft 399 kts 298°
2026-04-23 15:36 39.56608 34.36822 25061 ft 397 kts 298°
2026-04-23 15:36 39.58198 34.33907 24699 ft 395 kts 298°
2026-04-23 15:36 39.59778 34.31007 24340 ft 393 kts 298°
2026-04-23 15:36 39.61353 34.28121 23982 ft 391 kts 298°
2026-04-23 15:37 39.62919 34.25252 23651 ft 388 kts 297°
2026-04-23 15:37 39.64469 34.22405 23265 ft 385 kts 297°
2026-04-23 15:37 39.66006 34.19573 22845 ft 383 kts 297°
2026-04-23 15:37 39.67533 34.16754 22437 ft 381 kts 297°
2026-04-23 15:38 39.69050 34.13946 22039 ft 379 kts 297°
2026-04-23 15:38 39.70557 34.11152 21651 ft 377 kts 298°
2026-04-23 15:38 39.72059 34.08373 21249 ft 375 kts 298°
2026-04-23 15:38 39.73560 34.05602 20872 ft 374 kts 298°
2026-04-23 15:39 39.75053 34.02842 20510 ft 372 kts 297°
2026-04-23 15:39 39.76539 34.00096 20129 ft 371 kts 298°
2026-04-23 15:39 39.78020 33.97354 19753 ft 369 kts 298°
2026-04-23 15:39 39.79493 33.94627 19384 ft 368 kts 298°
2026-04-23 15:40 39.80959 33.91907 19024 ft 366 kts 298°
2026-04-23 15:40 39.82412 33.89208 18655 ft 362 kts 298°
2026-04-23 15:40 39.83839 33.86562 18307 ft 353 kts 298°
2026-04-23 15:40 39.85220 33.83998 17917 ft 346 kts 297°
2026-04-23 15:41 39.86585 33.81456 17528 ft 339 kts 297°
2026-04-23 15:41 39.87923 33.78957 17135 ft 332 kts 297°
2026-04-23 15:41 39.89232 33.76514 16740 ft 327 kts 297°
2026-04-23 15:41 39.90521 33.74105 16346 ft 321 kts 297°
2026-04-23 15:42 39.91788 33.71736 15967 ft 316 kts 297°
2026-04-23 15:42 39.93052 33.69366 15586 ft 312 kts 297°
2026-04-23 15:42 39.94266 33.67089 15218 ft 309 kts 297°
2026-04-23 15:42 39.95488 33.64794 14852 ft 306 kts 298°
2026-04-23 15:43 39.96696 33.62524 14475 ft 304 kts 298°
2026-04-23 15:43 39.97902 33.60258 14093 ft 303 kts 298°
2026-04-23 15:43 39.99098 33.58017 13756 ft 300 kts 299°
2026-04-23 15:43 40.00285 33.55790 13364 ft 298 kts 299°
2026-04-23 15:44 40.01462 33.53576 12965 ft 296 kts 299°
2026-04-23 15:44 40.02630 33.51369 12569 ft 296 kts 300°
2026-04-23 15:44 40.03797 33.49164 12174 ft 295 kts 300°
2026-04-23 15:44 40.04963 33.46968 11791 ft 294 kts 300°
2026-04-23 15:45 40.06128 33.44776 11396 ft 293 kts 301°
2026-04-23 15:45 40.07284 33.42594 11023 ft 291 kts 301°
2026-04-23 15:45 40.08435 33.40421 10651 ft 290 kts 301°
2026-04-23 15:45 40.09580 33.38264 10290 ft 289 kts 302°
2026-04-23 15:46 40.10997 33.36420 9980 ft 290 kts 324°
2026-04-23 15:46 40.12815 33.35292 9727 ft 288 kts 336°
2026-04-23 15:46 40.14674 33.34362 9449 ft 283 kts 336°
2026-04-23 15:46 40.16553 33.33625 9184 ft 283 kts 351°
2026-04-23 15:47 40.18497 33.33934 8996 ft 287 kts 19°
2026-04-23 15:47 40.20205 33.35318 8894 ft 291 kts 36°
2026-04-23 15:47 40.21744 33.37002 8911 ft 293 kts 38°
2026-04-23 15:47 40.23358 33.38614 8912 ft 290 kts 25°
2026-04-23 15:48 40.25243 33.39428 8908 ft 284 kts
2026-04-23 15:48 40.27188 33.39264 8905 ft 279 kts 341°
2026-04-23 15:48 40.28876 33.38062 8901 ft 269 kts 315°
2026-04-23 15:48 40.30108 33.36355 8899 ft 254 kts 309°
2026-04-23 15:49 40.31235 33.34646 8905 ft 242 kts 308°
2026-04-23 15:49 40.32323 33.32976 8908 ft 240 kts 308°
2026-04-23 15:49 40.33400 33.31305 8907 ft 240 kts 306°
2026-04-23 15:49 40.34136 33.29361 8917 ft 249 kts 282°
2026-04-23 15:50 40.34096 33.27016 8913 ft 268 kts 253°
2026-04-23 15:50 40.33158 33.24891 8912 ft 274 kts 233°
2026-04-23 15:50 40.31946 33.22926 8606 ft 279 kts 232°
2026-04-23 15:50 40.30718 33.20956 8218 ft 279 kts 232°
2026-04-23 15:51 40.29528 33.19056 7843 ft 280 kts 232°
2026-04-23 15:51 40.28294 33.17083 7458 ft 279 kts 232°
2026-04-23 15:51 40.27063 33.15105 7079 ft 280 kts 232°
2026-04-23 15:51 40.25846 33.13146 6697 ft 273 kts 232°
2026-04-23 15:52 40.24664 33.11252 6329 ft 264 kts 231°
2026-04-23 15:52 40.23335 33.09652 5940 ft 257 kts 218°
2026-04-23 15:52 40.21916 33.08325 5465 ft 243 kts 217°
2026-04-23 15:52 40.20582 33.07075 4948 ft 229 kts 218°
2026-04-23 15:53 40.19329 33.05870 4483 ft 219 kts 217°
2026-04-23 15:53 40.18128 33.04712 4130 ft 209 kts 216°
2026-04-23 15:53 40.17005 33.03652 3966 ft 189 kts 216°
2026-04-23 15:53 40.16016 33.02713 3751 ft 164 kts 218°
2026-04-23 15:54 40.15131 33.01875 3458 ft 149 kts 218°
2026-04-23 15:54 40.14315 33.01100 3245 ft 141 kts 219°
2026-04-23 15:54 40.13557 33.00371 3134 ft 129 kts 219°
2026-04-23 15:54 40.12940 32.99780 3124 ft 85 kts 216°
2026-04-23 15:55 40.12586 32.99440 3121 ft 49 kts 215°
2026-04-23 15:55 40.12353 32.99242 3118 ft 33 kts 203°
2026-04-23 15:55 40.12188 32.99201 3117 ft 19 kts 186°
2026-04-23 15:55 40.12073 32.99186 3116 ft 16 kts 185°
2026-04-23 15:56 40.11959 32.99150 3115 ft 18 kts 211°
2026-04-23 15:56 40.11864 32.99059 3114 ft 14 kts 217°
2026-04-23 15:56 40.11779 32.99082 3113 ft 15 kts 130°
2026-04-23 15:56 40.11688 32.99111 3113 ft 14 kts 206°
2026-04-23 15:57 40.11641 32.99089 3113 ft 7 kts 150°
2026-04-23 15:57 40.11619 32.99108 3113 ft 3 kts 146°
2026-04-23 15:57 40.11610 32.99115 3113 ft 1 kts 147°
2026-04-23 15:57 40.11602 32.99122 3113 ft 0 kts 146°